JCSAT-16

Last updated on Thu Nov 21 2024 00:02:43 GMT+0000 (Coordinated Universal Time)

1 41729U 16050A 24324.75211363 -.00000250 00000+0 00000+0 0 9994 2 41729 0.0139 317.2484 0000872 103.9032 52.8342 1.00270762 30318
UTC large
Height (km)
Speed (km/s)
/
Latitude / Longitude
Inclination (degrees)
Orbital Period (minutes)
Azimuth
Elevation
Range (km)
Doppler Factor

Next 0 passes for location: London (51.5072 / 0.1276)

Sorry there are no passes over London.